JLY7240 SBCY-SBPV

Flight info

Callsign JLY7240
Flight time 1h 31m
Altitude 34000
Route GETMA DCT NETBU DCT DUBGI
Aircraft A320/M-SDE3FGHIRWY/LB1

Departure

Time 2026-05-05 22:31
Airport Várzea Grande–Marechal Rondon International Airport (SBCY)

Arrival

Time 2026-05-06 00:03
Airport Governador Jorge Teixeira de Oliveira International Airport (SBPV)
Time Latitude Longitude Altitude Speed Heading
2026-05-05 22:22 -15.65083 -56.11964 569 ft 0 kts 242°
2026-05-05 22:24 -15.65082 -56.11963 597 ft 1 kts 242°
2026-05-05 22:25 -15.65070 -56.11942 597 ft 4 kts 223°
2026-05-05 22:25 -15.65049 -56.11931 597 ft 4 kts 162°
2026-05-05 22:25 -15.65043 -56.11933 597 ft 0 kts 153°
2026-05-05 22:27 -15.65065 -56.11921 597 ft 9 kts 153°
2026-05-05 22:27 -15.65064 -56.11835 597 ft 17 kts 51°
2026-05-05 22:28 -15.64956 -56.11848 596 ft 17 kts 332°
2026-05-05 22:28 -15.64853 -56.11903 596 ft 17 kts 333°
2026-05-05 22:28 -15.64755 -56.11955 596 ft 15 kts 333°
2026-05-05 22:28 -15.64669 -56.12000 596 ft 15 kts 333°
2026-05-05 22:29 -15.64548 -56.12065 595 ft 23 kts 332°
2026-05-05 22:29 -15.64437 -56.12148 596 ft 10 kts 277°
2026-05-05 22:29 -15.64399 -56.12179 596 ft 7 kts 22°
2026-05-05 22:29 -15.64408 -56.12139 596 ft 9 kts 150°
2026-05-05 22:30 -15.64462 -56.12111 596 ft 0 kts 153°
2026-05-05 22:30 -15.64463 -56.12111 596 ft 2 kts 153°
2026-05-05 22:30 -15.64636 -56.12019 595 ft 65 kts 152°
2026-05-05 22:31 -15.65234 -56.11701 598 ft 126 kts 153°
2026-05-05 22:31 -15.66154 -56.11213 683 ft 163 kts 152°
2026-05-05 22:31 -15.67127 -56.10679 1354 ft 157 kts 151°
2026-05-05 22:31 -15.68080 -56.10162 1830 ft 155 kts 159°
2026-05-05 22:32 -15.69184 -56.10218 1985 ft 174 kts 213°
2026-05-05 22:32 -15.70038 -56.11174 2178 ft 191 kts 233°
2026-05-05 22:32 -15.70933 -56.12316 2327 ft 215 kts 230°
2026-05-05 22:32 -15.71983 -56.13550 2515 ft 240 kts 228°
2026-05-05 22:33 -15.73134 -56.14833 3042 ft 250 kts 227°
2026-05-05 22:33 -15.74349 -56.16139 3722 ft 254 kts 226°
2026-05-05 22:33 -15.75488 -56.17555 4413 ft 259 kts 238°
2026-05-05 22:33 -15.76390 -56.19264 4802 ft 278 kts 243°
2026-05-05 22:34 -15.77294 -56.21064 5468 ft 284 kts 243°
2026-05-05 22:34 -15.78154 -56.22928 6205 ft 288 kts 252°
2026-05-05 22:34 -15.78488 -56.24980 6919 ft 290 kts 272°
2026-05-05 22:34 -15.78152 -56.27040 7666 ft 290 kts 291°
2026-05-05 22:35 -15.77202 -56.28880 8417 ft 291 kts 307°
2026-05-05 22:35 -15.76021 -56.30558 9160 ft 293 kts 307°
2026-05-05 22:35 -15.74814 -56.32268 9897 ft 295 kts 307°
2026-05-05 22:35 -15.73582 -56.34014 10326 ft 309 kts 307°
2026-05-05 22:36 -15.72268 -56.35876 10468 ft 331 kts 307°
2026-05-05 22:36 -15.70863 -56.37869 10626 ft 351 kts 307°
2026-05-05 22:36 -15.69403 -56.39941 11079 ft 359 kts 307°
2026-05-05 22:36 -15.67919 -56.42049 11635 ft 364 kts 307°
2026-05-05 22:37 -15.66415 -56.44184 12192 ft 368 kts 307°
2026-05-05 22:37 -15.64916 -56.46314 12731 ft 373 kts 307°
2026-05-05 22:37 -15.63380 -56.48497 13267 ft 377 kts 307°
2026-05-05 22:37 -15.61825 -56.50705 13806 ft 381 kts 307°
2026-05-05 22:38 -15.60254 -56.52935 14273 ft 385 kts 307°
2026-05-05 22:38 -15.58671 -56.55182 14769 ft 387 kts 307°
2026-05-05 22:38 -15.57074 -56.57448 15258 ft 390 kts 307°
2026-05-05 22:38 -15.55466 -56.59723 15747 ft 393 kts 307°
2026-05-05 22:39 -15.53845 -56.62015 16226 ft 396 kts 307°
2026-05-05 22:39 -15.52215 -56.64323 16716 ft 398 kts 307°
2026-05-05 22:39 -15.50571 -56.66651 17181 ft 401 kts 307°
2026-05-05 22:39 -15.48941 -56.68960 17663 ft 404 kts 307°
2026-05-05 22:40 -15.47278 -56.71316 18141 ft 406 kts 307°
2026-05-05 22:40 -15.45606 -56.73686 18564 ft 409 kts 307°
2026-05-05 22:40 -15.43917 -56.76078 18979 ft 412 kts 307°
2026-05-05 22:40 -15.42219 -56.78476 19397 ft 414 kts 307°
2026-05-05 22:41 -15.40509 -56.80891 19813 ft 417 kts 307°
2026-05-05 22:41 -15.38790 -56.83323 20237 ft 420 kts 307°
2026-05-05 22:41 -15.37062 -56.85767 20658 ft 422 kts 307°
2026-05-05 22:41 -15.35322 -56.88229 21049 ft 425 kts 307°
2026-05-05 22:42 -15.33569 -56.90707 21449 ft 427 kts 307°
2026-05-05 22:42 -15.31805 -56.93197 21841 ft 430 kts 307°
2026-05-05 22:42 -15.30032 -56.95699 22227 ft 432 kts 307°
2026-05-05 22:42 -15.28247 -56.98217 22599 ft 435 kts 307°
2026-05-05 22:43 -15.26472 -57.00717 22960 ft 438 kts 307°
2026-05-05 22:43 -15.24664 -57.03266 23327 ft 440 kts 307°
2026-05-05 22:43 -15.22852 -57.05824 23656 ft 442 kts 307°
2026-05-05 22:43 -15.21025 -57.08399 23954 ft 444 kts 307°
2026-05-05 22:44 -15.19191 -57.10981 24251 ft 446 kts 307°
2026-05-05 22:44 -15.17348 -57.13575 24545 ft 448 kts 306°
2026-05-05 22:44 -15.15502 -57.16171 24842 ft 449 kts 306°
2026-05-05 22:44 -15.13647 -57.18778 25122 ft 451 kts 306°
2026-05-05 22:45 -15.11810 -57.21361 25397 ft 452 kts 306°
2026-05-05 22:45 -15.09940 -57.23984 25671 ft 454 kts 306°
2026-05-05 22:45 -15.08066 -57.26610 25950 ft 455 kts 306°
2026-05-05 22:45 -15.06183 -57.29252 26223 ft 457 kts 306°
2026-05-05 22:46 -15.04298 -57.31902 26494 ft 458 kts 305°
2026-05-05 22:46 -15.02406 -57.34561 26757 ft 460 kts 305°
2026-05-05 22:46 -15.00508 -57.37227 27011 ft 461 kts 305°
2026-05-05 22:46 -14.98604 -57.39903 27266 ft 462 kts 305°
2026-05-05 22:47 -14.96717 -57.42552 27517 ft 464 kts 305°
2026-05-05 22:47 -14.94800 -57.45238 27764 ft 465 kts 305°
2026-05-05 22:47 -14.92877 -57.47931 28005 ft 467 kts 305°
2026-05-05 22:47 -14.90948 -57.50633 28236 ft 468 kts 304°
2026-05-05 22:48 -14.89009 -57.53349 28459 ft 469 kts 304°
2026-05-05 22:48 -14.87073 -57.56067 28680 ft 471 kts 304°
2026-05-05 22:48 -14.85128 -57.58794 28893 ft 472 kts 304°
2026-05-05 22:48 -14.83177 -57.61526 29101 ft 473 kts 304°
2026-05-05 22:49 -14.81217 -57.64261 29300 ft 474 kts 304°
2026-05-05 22:49 -14.79277 -57.66967 29500 ft 475 kts 304°
2026-05-05 22:49 -14.77310 -57.69714 29687 ft 476 kts 304°
2026-05-05 22:49 -14.75339 -57.72466 29955 ft 475 kts 304°
2026-05-05 22:50 -14.73373 -57.75208 30207 ft 474 kts 304°
2026-05-05 22:50 -14.71413 -57.77940 30449 ft 473 kts 304°
2026-05-05 22:50 -14.69458 -57.80670 30693 ft 472 kts 304°
2026-05-05 22:50 -14.67514 -57.83387 30937 ft 471 kts 304°
2026-05-05 22:51 -14.65568 -57.86102 31190 ft 469 kts 304°
2026-05-05 22:51 -14.63654 -57.88776 31435 ft 468 kts 304°
2026-05-05 22:51 -14.61695 -57.91510 31693 ft 467 kts 304°
2026-05-05 22:51 -14.59792 -57.94160 31953 ft 465 kts 305°
2026-05-05 22:52 -14.57866 -57.96839 32219 ft 464 kts 305°
2026-05-05 22:52 -14.55946 -57.99511 32483 ft 463 kts 305°
2026-05-05 22:52 -14.54037 -58.02175 32754 ft 461 kts 305°
2026-05-05 22:52 -14.52133 -58.04830 33015 ft 460 kts 305°
2026-05-05 22:53 -14.50230 -58.07477 33280 ft 458 kts 305°
2026-05-05 22:53 -14.48333 -58.10119 33550 ft 457 kts 305°
2026-05-05 22:53 -14.46445 -58.12747 33824 ft 456 kts 305°
2026-05-05 22:53 -14.44582 -58.15335 33989 ft 455 kts 305°
2026-05-05 22:54 -14.42683 -58.17966 34025 ft 459 kts 305°
2026-05-05 22:54 -14.38826 -58.23270 34028 ft 464 kts 307°
2026-05-05 22:55 -14.34706 -58.28403 34026 ft 465 kts 309°
2026-05-05 22:55 -14.30427 -58.33415 34027 ft 465 kts 310°
2026-05-05 22:56 -14.26200 -58.38412 34028 ft 465 kts 309°
2026-05-05 22:56 -14.22007 -58.43486 34031 ft 465 kts 309°
2026-05-05 22:57 -14.17822 -58.48576 34029 ft 465 kts 309°
2026-05-05 22:57 -14.13629 -58.53653 34031 ft 465 kts 309°
2026-05-05 22:58 -14.09447 -58.58685 34030 ft 465 kts 309°
2026-05-05 22:58 -14.05246 -58.63751 34032 ft 465 kts 309°
2026-05-05 22:59 -14.01042 -58.68822 34031 ft 465 kts 309°
2026-05-05 22:59 -13.96843 -58.73885 34028 ft 465 kts 309°
2026-05-05 23:00 -13.90530 -58.81478 34026 ft 465 kts 309°
2026-05-05 23:00 -13.86350 -58.86506 34029 ft 465 kts 309°
2026-05-05 23:01 -13.82144 -58.91562 34027 ft 465 kts 309°
2026-05-05 23:01 -13.77936 -58.96620 34026 ft 465 kts 309°
2026-05-05 23:02 -13.73731 -59.01676 34022 ft 465 kts 309°
2026-05-05 23:02 -13.69508 -59.06750 34022 ft 471 kts 310°
2026-05-05 23:03 -13.65236 -59.11863 34018 ft 477 kts 310°
2026-05-05 23:03 -13.60908 -59.17039 34015 ft 478 kts 310°
2026-05-05 23:04 -13.56577 -59.22222 34015 ft 478 kts 310°
2026-05-05 23:04 -13.52254 -59.27402 34011 ft 477 kts 310°
2026-05-05 23:05 -13.47958 -59.32546 34016 ft 477 kts 310°
2026-05-05 23:05 -13.43631 -59.37718 34019 ft 477 kts 310°
2026-05-05 23:06 -13.39300 -59.42880 34026 ft 477 kts 310°
2026-05-05 23:06 -13.34980 -59.48043 34024 ft 476 kts 310°
2026-05-05 23:07 -13.30695 -59.53165 34028 ft 476 kts 310°
2026-05-05 23:07 -13.26374 -59.58315 34029 ft 476 kts 310°
2026-05-05 23:08 -13.22061 -59.63457 34028 ft 475 kts 310°
2026-05-05 23:08 -13.17746 -59.68589 34028 ft 475 kts 310°
2026-05-05 23:09 -13.13463 -59.73690 34026 ft 475 kts 310°
2026-05-05 23:09 -13.09157 -59.78813 34024 ft 474 kts 310°
2026-05-05 23:10 -13.04860 -59.83926 34025 ft 474 kts 310°
2026-05-05 23:10 -13.00542 -59.89050 34029 ft 474 kts 310°
2026-05-05 23:11 -12.96241 -59.94151 34034 ft 473 kts 310°
2026-05-05 23:11 -12.91935 -59.99263 34043 ft 473 kts 310°
2026-05-05 23:12 -12.87638 -60.04373 34052 ft 473 kts 310°
2026-05-05 23:12 -12.83338 -60.09476 34060 ft 473 kts 310°
2026-05-05 23:13 -12.79062 -60.14541 34063 ft 473 kts 310°
2026-05-05 23:13 -12.74760 -60.19637 34062 ft 473 kts 311°
2026-05-05 23:14 -12.70450 -60.24735 34059 ft 473 kts 311°
2026-05-05 23:14 -12.66143 -60.29829 34050 ft 473 kts 310°
2026-05-05 23:15 -12.61834 -60.34927 34039 ft 473 kts 311°
2026-05-05 23:15 -12.57549 -60.39989 34026 ft 473 kts 311°
2026-05-05 23:16 -12.53229 -60.45080 34018 ft 474 kts 311°
2026-05-05 23:16 -12.48913 -60.50176 34018 ft 474 kts 311°
2026-05-05 23:17 -12.44600 -60.55272 34015 ft 474 kts 311°
2026-05-05 23:17 -12.40281 -60.60368 34023 ft 474 kts 311°
2026-05-05 23:18 -12.35991 -60.65422 34019 ft 474 kts 311°
2026-05-05 23:18 -12.31676 -60.70509 34021 ft 473 kts 311°
2026-05-05 23:19 -12.27359 -60.75594 34016 ft 473 kts 311°
2026-05-05 23:19 -12.23041 -60.80671 34014 ft 473 kts 311°
2026-05-05 23:20 -12.18713 -60.85749 34012 ft 473 kts 311°
2026-05-05 23:20 -12.14114 -60.90485 34010 ft 473 kts 319°
2026-05-05 23:21 -12.09132 -60.94870 34009 ft 473 kts 319°
2026-05-05 23:21 -12.04151 -60.99255 34005 ft 472 kts 319°
2026-05-05 23:22 -11.99171 -61.03637 34002 ft 472 kts 319°
2026-05-05 23:22 -11.94221 -61.07988 33999 ft 473 kts 319°
2026-05-05 23:23 -11.89235 -61.12372 33999 ft 473 kts 319°
2026-05-05 23:23 -11.84249 -61.16755 33997 ft 474 kts 319°
2026-05-05 23:24 -11.79252 -61.21143 34000 ft 474 kts 319°
2026-05-05 23:24 -11.74252 -61.25526 34001 ft 474 kts 319°
2026-05-05 23:25 -11.69289 -61.29877 33997 ft 473 kts 319°
2026-05-05 23:25 -11.64302 -61.34260 33994 ft 473 kts 319°
2026-05-05 23:26 -11.59316 -61.38639 33991 ft 473 kts 319°
2026-05-05 23:26 -11.54328 -61.43011 33990 ft 473 kts 319°
2026-05-05 23:27 -11.49367 -61.47353 33989 ft 473 kts 319°
2026-05-05 23:27 -11.44383 -61.51724 33987 ft 473 kts 319°
2026-05-05 23:28 -11.39386 -61.56100 33994 ft 473 kts 320°
2026-05-05 23:28 -11.34382 -61.60472 33996 ft 474 kts 320°
2026-05-05 23:29 -11.29378 -61.64843 33997 ft 474 kts 320°
2026-05-05 23:29 -11.24369 -61.69220 33999 ft 474 kts 320°
2026-05-05 23:30 -11.20203 -61.72852 33997 ft 474 kts 320°
2026-05-05 23:30 -11.14383 -61.77941 33999 ft 474 kts 320°
2026-05-05 23:31 -11.09366 -61.82308 33995 ft 474 kts 320°
2026-05-05 23:31 -11.04356 -61.86678 33995 ft 474 kts 320°
2026-05-05 23:32 -10.99354 -61.91054 33995 ft 474 kts 320°
2026-05-05 23:32 -10.94376 -61.95393 33992 ft 474 kts 320°
2026-05-05 23:33 -10.89359 -61.99756 33994 ft 474 kts 320°
2026-05-05 23:33 -10.84343 -62.04116 33989 ft 474 kts 320°
2026-05-05 23:34 -10.80177 -62.07737 33993 ft 474 kts 320°
2026-05-05 23:34 -10.75157 -62.12105 33992 ft 475 kts 320°
2026-05-05 23:35 -10.69331 -62.17183 33999 ft 475 kts 320°
2026-05-05 23:35 -10.64315 -62.21551 33996 ft 475 kts 320°
2026-05-05 23:36 -10.60139 -62.25168 34002 ft 475 kts 320°
2026-05-05 23:36 -10.55117 -62.29516 33999 ft 474 kts 320°
2026-05-05 23:37 -10.49281 -62.34570 33999 ft 474 kts 320°
2026-05-05 23:37 -10.45085 -62.38208 34000 ft 474 kts 320°
2026-05-05 23:38 -10.40107 -62.42531 34001 ft 474 kts 320°
2026-05-05 23:38 -10.35096 -62.46882 34000 ft 474 kts 320°
2026-05-05 23:39 -10.30080 -62.51232 33999 ft 474 kts 320°
2026-05-05 23:39 -10.24246 -62.56278 33996 ft 474 kts 320°
2026-05-05 23:40 -10.19959 -62.59808 33990 ft 474 kts 323°
2026-05-05 23:40 -10.14640 -62.63670 33987 ft 473 kts 326°
2026-05-05 23:41 -10.09214 -62.67461 33988 ft 473 kts 325°
2026-05-05 23:41 -10.03843 -62.71326 33988 ft 474 kts 324°
2026-05-05 23:42 -9.98501 -62.75241 33989 ft 474 kts 324°
2026-05-05 23:42 -9.93165 -62.79166 33984 ft 473 kts 324°
2026-05-05 23:43 -9.87855 -62.83045 33987 ft 474 kts 324°
2026-05-05 23:43 -9.82500 -62.86939 33983 ft 474 kts 324°
2026-05-05 23:44 -9.77148 -62.90837 33985 ft 474 kts 324°
2026-05-05 23:44 -9.71798 -62.94732 33980 ft 473 kts 324°
2026-05-05 23:45 -9.69132 -62.96673 33256 ft 472 kts 325°
2026-05-05 23:45 -9.66484 -62.98603 32025 ft 479 kts 325°
2026-05-05 23:45 -9.63766 -63.00580 30995 ft 481 kts 326°
2026-05-05 23:45 -9.61052 -63.02554 30021 ft 482 kts 326°
2026-05-05 23:46 -9.58346 -63.04524 29333 ft 474 kts 326°
2026-05-05 23:46 -9.55682 -63.06463 28654 ft 468 kts 326°
2026-05-05 23:46 -9.53055 -63.08378 27968 ft 463 kts 326°
2026-05-05 23:46 -9.50450 -63.10274 27295 ft 459 kts 326°
2026-05-05 23:47 -9.47869 -63.12150 26639 ft 455 kts 326°
2026-05-05 23:47 -9.45308 -63.14010 25987 ft 452 kts 326°
2026-05-05 23:47 -9.42762 -63.15858 25342 ft 449 kts 326°
2026-05-05 23:47 -9.40263 -63.17671 24713 ft 447 kts 326°
2026-05-05 23:48 -9.37742 -63.19501 24087 ft 444 kts 326°
2026-05-05 23:48 -9.35238 -63.21320 23457 ft 443 kts 326°
2026-05-05 23:48 -9.32743 -63.23130 22808 ft 439 kts 326°
2026-05-05 23:48 -9.30271 -63.24922 22249 ft 434 kts 326°
2026-05-05 23:49 -9.27831 -63.26692 21705 ft 430 kts 326°
2026-05-05 23:49 -9.25411 -63.28453 21188 ft 426 kts 326°
2026-05-05 23:49 -9.23016 -63.30196 20678 ft 422 kts 326°
2026-05-05 23:49 -9.20670 -63.31901 20178 ft 419 kts 326°
2026-05-05 23:50 -9.18305 -63.33616 19683 ft 417 kts 326°
2026-05-05 23:50 -9.15950 -63.35321 19161 ft 415 kts 326°
2026-05-05 23:50 -9.13606 -63.37017 18654 ft 413 kts 326°
2026-05-05 23:50 -9.11273 -63.38706 18101 ft 412 kts 326°
2026-05-05 23:51 -9.08945 -63.40392 17541 ft 410 kts 326°
2026-05-05 23:51 -9.06632 -63.42068 17014 ft 407 kts 326°
2026-05-05 23:51 -9.04338 -63.43730 16475 ft 405 kts 326°
2026-05-05 23:51 -9.02049 -63.45388 15933 ft 403 kts 326°
2026-05-05 23:52 -8.99774 -63.47039 15393 ft 402 kts 326°
2026-05-05 23:52 -8.97538 -63.48661 14854 ft 400 kts 326°
2026-05-05 23:52 -8.95283 -63.50294 14304 ft 399 kts 326°
2026-05-05 23:52 -8.93026 -63.51924 13763 ft 397 kts 326°
2026-05-05 23:53 -8.90787 -63.53544 13229 ft 393 kts 326°
2026-05-05 23:53 -8.88568 -63.55151 12629 ft 391 kts 326°
2026-05-05 23:53 -8.86373 -63.56741 12060 ft 388 kts 326°
2026-05-05 23:53 -8.84194 -63.58320 11526 ft 384 kts 326°
2026-05-05 23:54 -8.82032 -63.59887 10990 ft 380 kts 326°
2026-05-05 23:54 -8.79888 -63.61439 10498 ft 375 kts 326°
2026-05-05 23:54 -8.77810 -63.62943 10381 ft 359 kts 326°
2026-05-05 23:54 -8.75821 -63.64382 10249 ft 344 kts 326°
2026-05-05 23:55 -8.73934 -63.65746 10140 ft 331 kts 326°
2026-05-05 23:55 -8.72096 -63.67077 10020 ft 319 kts 326°
2026-05-05 23:55 -8.70321 -63.68362 9906 ft 309 kts 326°
2026-05-05 23:55 -8.68583 -63.69620 9558 ft 307 kts 326°
2026-05-05 23:56 -8.66852 -63.70869 9169 ft 305 kts 326°
2026-05-05 23:56 -8.65134 -63.72109 8756 ft 301 kts 326°
2026-05-05 23:56 -8.63438 -63.73332 8093 ft 298 kts 326°
2026-05-05 23:56 -8.61754 -63.74549 7441 ft 296 kts 326°
2026-05-05 23:57 -8.60091 -63.75751 6810 ft 293 kts 326°
2026-05-05 23:57 -8.58463 -63.76929 6179 ft 290 kts 326°
2026-05-05 23:57 -8.56829 -63.78110 5515 ft 287 kts 326°
2026-05-05 23:57 -8.55211 -63.79278 4862 ft 285 kts 326°
2026-05-05 23:58 -8.53746 -63.80631 4417 ft 286 kts 307°
2026-05-05 23:58 -8.52888 -63.82414 4138 ft 280 kts 284°
2026-05-05 23:58 -8.52709 -63.84335 3807 ft 275 kts 267°
2026-05-05 23:58 -8.52814 -63.86272 3337 ft 277 kts 266°
2026-05-05 23:59 -8.53085 -63.88171 3154 ft 266 kts 249°
2026-05-05 23:59 -8.53976 -63.89683 3118 ft 247 kts 225°
2026-05-05 23:59 -8.55317 -63.90673 2964 ft 235 kts 201°
2026-05-05 23:59 -8.56866 -63.91051 2731 ft 227 kts 179°
2026-05-06 00:00 -8.58428 -63.90978 2461 ft 221 kts 174°
2026-05-06 00:00 -8.59917 -63.90887 2185 ft 209 kts 174°
2026-05-06 00:00 -8.61317 -63.90804 1945 ft 195 kts 174°
2026-05-06 00:00 -8.62627 -63.90726 1689 ft 181 kts 174°
2026-05-06 00:01 -8.63819 -63.90656 1471 ft 163 kts 174°
2026-05-06 00:01 -8.64900 -63.90591 1258 ft 153 kts 175°
2026-05-06 00:01 -8.65940 -63.90529 1068 ft 148 kts 174°
2026-05-06 00:01 -8.66968 -63.90467 889 ft 147 kts 175°
2026-05-06 00:02 -8.67983 -63.90406 699 ft 146 kts 174°
2026-05-06 00:02 -8.68994 -63.90345 439 ft 145 kts 175°
2026-05-06 00:02 -8.69972 -63.90286 314 ft 140 kts 175°
2026-05-06 00:02 -8.70826 -63.90235 302 ft 94 kts 177°
2026-05-06 00:03 -8.71196 -63.90214 300 ft 30 kts 176°
2026-05-06 00:03 -8.71376 -63.90203 302 ft 23 kts 176°
2026-05-06 00:03 -8.71420 -63.90129 300 ft 14 kts 83°
2026-05-06 00:03 -8.71424 -63.90041 299 ft 9 kts 97°
2026-05-06 00:04 -8.71424 -63.89992 299 ft 4 kts 86°
2026-05-06 00:04 -8.71422 -63.89962 299 ft 5 kts 86°
2026-05-06 00:04 -8.71420 -63.89930 300 ft 0 kts 86°